Location: Unspecified
(0.0000°N, 0.0000°E)
Time: 20:23:49
(UTC+00:00)

Envisat - Pass Details

Date: 27 May 2023
Orbit: 763 x 765 km, 98.2° (Epoch: 05 June)

Event Time Altitude Azimuth Distance (km) Brightness Sun altitude
Rises 03:41:59 0° 4° (N) 3,210 6.6 -31.2°
Reaches altitude 10° 03:44:18 10° 1° (N) 2,287 5.7 -30.7°
Enters shadow 03:46:33 26° 352° (N) 1,449 4.5 -30.2°
